START_TIME,STEP,MOV.,EG07,t_acc.,EG08,t_acc.,EG09,t_acc.,EB05,t_acc.,EBP05,t_acc.
1979-03-09 00:00:20.850 ,2,0,0.,1.2,0.,1.2,0.,1.2,,0.0,,0.0
1979-03-09 00:00:22.050 ,2,0,0.,1.2,0.,1.2,0.,1.2,,0.0,,0.0
1979-03-09 00:00:23.250 ,2,0,0.,1.2,0.,1.2,0.,1.2,,0.0,,0.0
1979-03-09 00:00:24.450 ,2,0,0.,1.2,0.,1.2,0.,1.2,,0.0,,0.0
1979-03-09 00:00:25.650 ,2,0,0.,1.2,0.,1.2,0.,1.2,,0.0,,0.0
1979-03-09 00:00:26.850 ,2,0,0.,1.2,0.,1.2,0.,1.2,,0.0,,0.0
1979-03-09 00:00:28.050 ,2,0,0.,1.2,0.,1.2,0.,1.2,,0.0,,0.0
1979-03-09 00:00:29.250 ,2,0,0.,1.2,0.,1.2,0.,1.2,,0.0,,0.0
1979-03-09 00:00:30.450 ,2,0,0.,1.2,0.,1.2,0.,1.2,,0.0,,0.0
1979-03-09 00:00:31.650 ,2,0,0.,1.2,0.,1.2,0.,1.2,,0.0,,0.0
1979-03-09 00:00:32.850 ,2,0,0.,1.2,0.,1.2,0.,1.2,,0.0,,0.0
1979-03-09 00:00:34.050 ,2,0,0.,1.2,0.,1.2,0.,1.2,,0.0,,0.0
1979-03-09 00:00:35.250 ,2,0,0.,1.2,0.,1.2,0.,1.2,,0.0,,0.0
1979-03-09 00:00:36.450 ,2,0,0.,1.2,0.,1.2,0.,1.2,,0.0,,0.0
1979-03-09 00:00:37.650 ,2,0,0.,1.2,0.,1.2,0.,1.2,,0.0,,0.0
1979-03-09 00:00:38.850 ,2,0,0.,1.2,0.,1.2,0.,1.2,,0.0,,0.0
1979-03-09 00:00:40.050 ,2,0,0.,1.2,0.,1.2,0.,1.2,,0.0,,0.0
1979-03-09 00:00:41.250 ,2,0,0.,1.2,0.,1.2,0.,1.2,,0.0,,0.0
1979-03-09 00:00:42.450 ,2,0,0.,1.2,0.,1.2,0.,1.2,,0.0,,0.0
1979-03-09 00:00:43.650 ,2,0,0.,1.2,0.,1.2,0.,1.2,,0.0,,0.0
1979-03-09 00:00:44.850 ,3,0,0.,1.2,0.,1.2,0.,1.2,,0.0,,0.0
1979-03-09 00:00:46.050 ,3,0,0.,1.2,0.,1.2,0.,1.2,,0.0,,0.0
1979-03-09 00:00:47.250 ,3,0,0.,1.2,0.,1.2,0.,1.2,,0.0,,0.0
1979-03-09 00:00:48.450 ,3,0,0.,1.2,0.,1.2,0.,1.2,,0.0,,0.0
1979-03-09 00:00:49.650 ,3,0,0.,1.2,0.,1.2,0.,1.2,,0.0,,0.0
1979-03-09 00:00:50.850 ,3,0,0.,1.2,0.,1.2,0.,1.2,,0.0,,0.0
1979-03-09 00:00:52.050 ,3,0,0.,1.2,0.,1.2,0.,1.2,,0.0,,0.0
1979-03-09 00:00:53.250 ,3,0,0.,1.2,0.,1.2,0.,1.2,,0.0,,0.0
1979-03-09 00:00:54.450 ,3,0,0.,1.2,0.,1.2,0.,1.2,,0.0,,0.0
1979-03-09 00:00:55.650 ,3,0,0.,1.2,0.,1.2,0.,1.2,,0.0,,0.0
1979-03-09 00:00:56.850 ,3,0,0.,1.2,0.,1.2,0.,1.2,,0.0,,0.0
1979-03-09 00:00:58.050 ,3,0,0.,1.2,0.,1.2,0.,1.2,,0.0,,0.0
1979-03-09 00:00:59.250 ,3,0,0.,1.2,0.,1.2,0.,1.2,,0.0,,0.0
1979-03-09 00:01:00.450 ,3,0,0.,1.2,0.,1.2,0.,1.2,,0.0,,0.0
1979-03-09 00:01:01.650 ,3,0,0.,1.2,0.,1.2,0.,1.2,,0.0,,0.0
1979-03-09 00:01:02.850 ,3,0,0.,1.2,0.,1.2,0.,1.2,,0.0,,0.0
1979-03-09 00:01:04.050 ,3,0,0.,1.2,0.,1.2,0.,1.2,,0.0,,0.0
1979-03-09 00:01:05.250 ,3,0,0.,1.2,0.,1.2,0.,1.2,,0.0,,0.0
1979-03-09 00:01:06.450 ,3,0,0.,1.2,0.,1.2,0.,1.2,,0.0,,0.0
1979-03-09 00:01:07.650 ,3,0,0.,1.2,0.,1.2,0.,1.2,,0.0,,0.0
1979-03-09 00:01:08.850 ,4,0,0.,1.2,0.,1.2,0.,1.2,,0.0,,0.0
1979-03-09 00:01:10.050 ,4,0,0.,1.2,0.,1.2,0.,1.2,,0.0,,0.0
1979-03-09 00:01:11.250 ,4,0,0.,1.2,0.,1.2,0.,1.2,,0.0,,0.0
1979-03-09 00:01:12.450 ,4,0,0.,1.2,0.,1.2,0.,1.2,,0.0,,0.0
1979-03-09 00:01:13.650 ,4,0,0.,1.2,0.,1.2,0.,1.2,,0.0,,0.0
1979-03-09 00:01:14.850 ,4,0,0.,1.2,0.,1.2,0.,1.2,,0.0,,0.0
1979-03-09 00:01:16.050 ,4,0,0.,1.2,0.,1.2,0.,1.2,,0.0,,0.0
1979-03-09 00:01:17.250 ,4,0,0.,1.2,0.,1.2,0.,1.2,,0.0,,0.0
1979-03-09 00:01:18.450 ,4,0,0.,1.2,0.,1.2,0.,1.2,,0.0,,0.0
1979-03-09 00:01:19.650 ,4,0,0.,1.2,0.,1.2,0.,1.2,,0.0,,0.0
1979-03-09 00:01:20.850 ,4,0,0.,1.2,0.,1.2,0.,1.2,,0.0,,0.0
1979-03-09 00:01:22.050 ,4,0,0.,1.2,0.,1.2,0.,1.2,,0.0,,0.0
1979-03-09 00:01:23.250 ,4,0,0.,1.2,0.,1.2,0.,1.2,,0.0,,0.0
1979-03-09 00:01:24.450 ,4,0,0.,1.2,0.,1.2,0.,1.2,,0.0,,0.0
1979-03-09 00:01:25.650 ,4,0,0.,1.2,0.,1.2,0.,1.2,,0.0,,0.0
1979-03-09 00:01:26.850 ,4,0,0.,1.2,0.,1.2,0.,1.2,,0.0,,0.0
1979-03-09 00:01:28.050 ,4,0,0.,1.2,0.,1.2,0.,1.2,,0.0,,0.0
1979-03-09 00:01:29.250 ,4,0,0.,1.2,0.,1.2,0.,1.2,,0.0,,0.0
1979-03-09 00:01:30.450 ,4,0,0.,1.2,0.,1.2,0.,1.2,,0.0,,0.0
1979-03-09 00:01:31.650 ,4,0,0.,1.2,0.,1.2,0.,1.2,,0.0,,0.0
1979-03-09 00:01:32.850 ,5,0,0.,1.2,0.,1.2,0.,1.2,,0.0,,0.0
1979-03-09 00:01:34.050 ,5,0,0.,1.2,0.,1.2,0.,1.2,,0.0,,0.0
1979-03-09 00:01:35.250 ,5,0,0.,1.2,0.,1.2,0.,1.2,,0.0,,0.0
1979-03-09 00:01:36.450 ,5,0,0.,1.2,0.,1.2,0.,1.2,,0.0,,0.0
1979-03-09 00:01:37.650 ,5,0,0.,1.2,0.,1.2,0.,1.2,,0.0,,0.0
1979-03-09 00:01:38.850 ,5,0,0.,1.2,0.,1.2,0.,1.2,,0.0,,0.0
1979-03-09 00:01:40.050 ,5,0,0.,1.2,0.,1.2,0.,1.2,,0.0,,0.0
1979-03-09 00:01:41.250 ,5,0,0.,1.2,0.,1.2,0.,1.2,,0.0,,0.0
1979-03-09 00:01:42.450 ,5,0,0.,1.2,0.,1.2,0.,1.2,,0.0,,0.0
1979-03-09 00:01:43.650 ,5,0,0.,1.2,0.,1.2,0.,1.2,,0.0,,0.0
1979-03-09 00:01:44.850 ,5,0,0.,1.2,0.,1.2,0.,1.2,,0.0,,0.0
1979-03-09 00:01:46.050 ,5,0,0.,1.2,0.,1.2,0.,1.2,,0.0,,0.0
1979-03-09 00:01:47.250 ,5,0,0.,1.2,0.,1.2,0.,1.2,,0.0,,0.0
1979-03-09 00:01:48.450 ,5,0,0.,1.2,0.,1.2,0.,1.2,,0.0,,0.0
1979-03-09 00:01:49.650 ,5,0,0.,1.2,0.,1.2,0.,1.2,,0.0,,0.0
1979-03-09 00:01:50.850 ,5,0,0.,1.2,0.,1.2,0.,1.2,,0.0,,0.0
1979-03-09 00:01:52.050 ,5,0,0.,1.2,0.,1.2,0.,1.2,,0.0,,0.0
1979-03-09 00:01:53.250 ,5,0,0.,1.2,0.,1.2,0.,1.2,,0.0,,0.0
1979-03-09 00:01:54.450 ,5,0,0.,1.2,0.,1.2,0.,1.2,,0.0,,0.0
1979-03-09 00:01:55.650 ,5,0,0.,1.2,0.,1.2,0.,1.2,,0.0,,0.0
1979-03-09 00:01:56.850 ,6,0,0.,1.2,0.,1.2,0.,1.2,,0.0,,0.0
1979-03-09 00:01:58.050 ,6,0,0.,1.2,0.,1.2,0.,1.2,,0.0,,0.0
1979-03-09 00:01:59.250 ,6,0,0.,1.2,0.,1.2,0.,1.2,,0.0,,0.0
1979-03-09 00:02:00.450 ,6,0,0.,1.2,0.,1.2,0.,1.2,,0.0,,0.0
1979-03-09 00:02:01.650 ,6,0,0.,1.2,0.,1.2,0.,1.2,,0.0,,0.0
1979-03-09 00:02:02.850 ,6,0,0.,1.2,0.,1.2,0.,1.2,,0.0,,0.0
1979-03-09 00:02:04.050 ,6,0,0.,1.2,0.,1.2,0.,1.2,,0.0,,0.0
1979-03-09 00:02:05.250 ,6,0,0.,1.2,0.,1.2,0.,1.2,,0.0,,0.0
1979-03-09 00:02:06.450 ,6,0,0.,1.2,0.,1.2,0.,1.2,,0.0,,0.0
1979-03-09 00:02:07.650 ,6,0,0.,1.2,0.,1.2,0.,1.2,,0.0,,0.0
1979-03-09 00:02:08.850 ,6,0,0.,1.2,0.,1.2,0.,1.2,,0.0,,0.0
1979-03-09 00:02:10.050 ,6,0,0.,1.2,0.,1.2,0.,1.2,,0.0,,0.0
1979-03-09 00:02:11.250 ,6,0,0.,1.2,0.,1.2,0.,1.2,,0.0,,0.0
1979-03-09 00:02:12.450 ,6,0,0.,1.2,0.,1.2,0.,1.2,,0.0,,0.0
1979-03-09 00:02:13.650 ,6,0,0.,1.2,0.,1.2,0.,1.2,,0.0,,0.0
1979-03-09 00:02:14.850 ,6,0,0.,1.2,0.,1.2,0.,1.2,,0.0,,0.0
1979-03-09 00:02:16.050 ,6,0,0.,1.2,0.,1.2,0.,1.2,,0.0,,0.0
1979-03-09 00:02:17.250 ,6,0,0.,1.2,0.,1.2,0.,1.2,,0.0,,0.0
1979-03-09 00:02:18.450 ,6,0,0.,1.2,0.,1.2,0.,1.2,,0.0,,0.0
1979-03-09 00:02:19.650 ,6,0,0.,1.2,0.,1.2,0.,1.2,,0.0,,0.0
1979-03-09 00:02:20.850 ,7,0,0.,1.2,0.,1.2,0.,1.2,,0.0,,0.0
1979-03-09 00:02:22.050 ,7,0,0.,1.2,0.,1.2,0.,1.2,,0.0,,0.0
1979-03-09 00:02:23.250 ,7,0,0.,1.2,0.,1.2,0.,1.2,,0.0,,0.0
1979-03-09 00:02:24.450 ,7,0,0.,1.2,0.,1.2,0.,1.2,,0.0,,0.0
1979-03-09 00:02:25.650 ,7,0,0.,1.2,0.,1.2,0.,1.2,,0.0,,0.0
1979-03-09 00:02:26.850 ,7,0,0.,1.2,0.,1.2,0.,1.2,,0.0,,0.0
1979-03-09 00:02:28.050 ,7,0,0.,1.2,0.,1.2,0.,1.2,,0.0,,0.0
1979-03-09 00:02:29.250 ,7,0,0.,1.2,0.,1.2,0.,1.2,,0.0,,0.0
1979-03-09 00:02:30.450 ,7,0,0.,1.2,0.,1.2,0.,1.2,,0.0,,0.0
1979-03-09 00:02:31.650 ,7,0,0.,1.2,0.,1.2,0.,1.2,,0.0,,0.0
1979-03-09 00:02:32.850 ,7,0,0.,1.2,0.,1.2,0.,1.2,,0.0,,0.0
1979-03-09 00:02:34.050 ,7,0,0.,1.2,0.,1.2,0.,1.2,,0.0,,0.0
1979-03-09 00:02:35.250 ,7,0,0.,1.2,0.,1.2,0.,1.2,,0.0,,0.0
1979-03-09 00:02:36.450 ,7,0,0.,1.2,0.,1.2,0.,1.2,,0.0,,0.0
1979-03-09 00:02:37.650 ,7,0,0.,1.2,0.,1.2,0.,1.2,,0.0,,0.0
1979-03-09 00:02:38.850 ,7,0,0.,1.2,0.,1.2,0.,1.2,,0.0,,0.0
1979-03-09 00:02:40.050 ,7,0,0.,1.2,0.,1.2,0.,1.2,,0.0,,0.0
1979-03-09 00:02:41.250 ,7,0,0.,1.2,0.,1.2,0.,1.2,,0.0,,0.0
1979-03-09 00:02:42.450 ,7,0,0.,1.2,0.,1.2,0.,1.2,,0.0,,0.0
1979-03-09 00:02:43.650 ,7,0,0.,1.2,0.,1.2,0.,1.2,,0.0,,0.0
1979-03-09 00:02:44.850 ,7,0,0.,1.2,0.,1.2,0.,1.2,,0.0,,0.0
1979-03-09 00:02:46.050 ,7,0,0.,1.2,0.,1.2,0.,1.2,,0.0,,0.0
1979-03-09 00:02:47.250 ,7,0,0.,1.2,0.,1.2,0.,1.2,,0.0,,0.0
1979-03-09 00:02:48.450 ,7,0,0.,1.2,0.,1.2,0.,1.2,,0.0,,0.0
1979-03-09 00:02:49.650 ,7,0,0.,1.2,0.,1.2,0.,1.2,,0.0,,0.0
1979-03-09 00:02:50.850 ,7,0,0.,1.2,0.,1.2,0.,1.2,,0.0,,0.0
1979-03-09 00:02:52.050 ,7,0,0.,1.2,0.,1.2,0.,1.2,,0.0,,0.0
1979-03-09 00:02:53.250 ,7,0,0.,1.2,0.,1.2,0.,1.2,,0.0,,0.0
1979-03-09 00:02:54.450 ,7,0,0.,1.2,0.,1.2,0.,1.2,,0.0,,0.0
1979-03-09 00:02:55.650 ,7,0,0.,1.2,0.,1.2,0.,1.2,,0.0,,0.0
1979-03-09 00:02:56.850 ,7,0,0.,1.2,0.,1.2,0.,1.2,,0.0,,0.0
1979-03-09 00:02:58.050 ,7,0,0.,1.2,0.,1.2,0.,1.2,,0.0,,0.0
1979-03-09 00:02:59.250 ,7,0,0.,1.2,0.,1.2,0.,1.2,,0.0,,0.0
1979-03-09 00:03:00.450 ,7,0,0.,1.2,0.,1.2,0.,1.2,,0.0,,0.0
1979-03-09 00:03:01.650 ,7,0,0.,1.2,0.,1.2,0.,1.2,,0.0,,0.0
1979-03-09 00:03:02.850 ,7,0,0.,1.2,0.,1.2,0.,1.2,,0.0,,0.0
1979-03-09 00:03:04.050 ,7,0,0.,1.2,0.,1.2,0.,1.2,,0.0,,0.0
1979-03-09 00:03:05.250 ,7,0,0.,1.2,0.,1.2,0.,1.2,,0.0,,0.0
1979-03-09 00:03:06.450 ,7,0,0.,1.2,0.,1.2,0.,1.2,,0.0,,0.0
1979-03-09 00:03:07.650 ,7,0,0.,1.2,0.,1.2,0.,1.2,,0.0,,0.0
1979-03-09 00:03:08.850 ,6,0,0.,1.2,0.,1.2,0.,1.2,,0.0,,0.0
1979-03-09 00:03:10.050 ,6,0,0.,1.2,0.,1.2,0.,1.2,,0.0,,0.0
1979-03-09 00:03:11.250 ,6,0,0.,1.2,0.,1.2,0.,1.2,,0.0,,0.0
1979-03-09 00:03:12.450 ,6,0,0.,1.2,0.,1.2,0.,1.2,,0.0,,0.0
1979-03-09 00:03:13.650 ,6,0,0.,1.2,0.,1.2,0.,1.2,,0.0,,0.0
1979-03-09 00:03:14.850 ,6,0,0.,1.2,0.,1.2,0.,1.2,,0.0,,0.0
1979-03-09 00:03:16.050 ,6,0,0.,1.2,0.,1.2,0.,1.2,,0.0,,0.0
1979-03-09 00:03:17.250 ,6,0,0.,1.2,0.,1.2,0.,1.2,,0.0,,0.0
1979-03-09 00:03:18.450 ,6,0,0.,1.2,0.,1.2,0.,1.2,,0.0,,0.0
1979-03-09 00:03:19.650 ,6,0,0.,1.2,0.,1.2,0.,1.2,,0.0,,0.0
1979-03-09 00:03:20.850 ,6,0,0.,1.2,0.,1.2,0.,1.2,,0.0,,0.0
1979-03-09 00:03:22.050 ,6,0,0.,1.2,0.,1.2,0.,1.2,,0.0,,0.0
1979-03-09 00:03:23.250 ,6,0,0.,1.2,0.,1.2,0.,1.2,,0.0,,0.0
1979-03-09 00:03:24.450 ,6,0,0.,1.2,0.,1.2,0.,1.2,,0.0,,0.0
1979-03-09 00:03:25.650 ,6,0,0.,1.2,0.,1.2,0.,1.2,,0.0,,0.0
1979-03-09 00:03:26.850 ,6,0,0.,1.2,0.,1.2,0.,1.2,,0.0,,0.0
1979-03-09 00:03:28.050 ,6,0,0.,1.2,0.,1.2,0.,1.2,,0.0,,0.0
1979-03-09 00:03:29.250 ,6,0,0.,1.2,0.,1.2,0.,1.2,,0.0,,0.0
1979-03-09 00:03:30.450 ,6,0,0.,1.2,0.,1.2,0.,1.2,,0.0,,0.0
1979-03-09 00:03:31.650 ,6,0,0.,1.2,0.,1.2,0.,1.2,,0.0,,0.0
1979-03-09 00:03:32.850 ,5,0,0.,1.2,0.,1.2,0.,1.2,,0.0,,0.0
1979-03-09 00:03:34.050 ,5,0,0.,1.2,0.,1.2,0.,1.2,,0.0,,0.0
1979-03-09 00:03:35.250 ,5,0,0.,1.2,0.,1.2,0.,1.2,,0.0,,0.0
1979-03-09 00:03:36.450 ,5,0,0.,1.2,0.,1.2,0.,1.2,,0.0,,0.0
1979-03-09 00:03:37.650 ,5,0,0.,1.2,0.,1.2,0.,1.2,,0.0,,0.0
1979-03-09 00:03:38.850 ,5,0,0.,1.2,0.,1.2,0.,1.2,,0.0,,0.0
1979-03-09 00:03:40.050 ,5,0,0.,1.2,0.,1.2,0.,1.2,,0.0,,0.0
1979-03-09 00:03:41.250 ,5,0,0.,1.2,0.,1.2,0.,1.2,,0.0,,0.0
1979-03-09 00:03:42.450 ,5,0,0.,1.2,0.,1.2,0.,1.2,,0.0,,0.0
1979-03-09 00:03:43.650 ,5,0,0.,1.2,0.,1.2,0.,1.2,,0.0,,0.0
1979-03-09 00:03:44.850 ,5,0,0.,1.2,0.,1.2,0.,1.2,,0.0,,0.0
1979-03-09 00:03:46.050 ,5,0,0.,1.2,0.,1.2,0.,1.2,,0.0,,0.0
1979-03-09 00:03:47.250 ,5,0,0.,1.2,0.,1.2,0.,1.2,,0.0,,0.0
1979-03-09 00:03:48.450 ,5,0,0.,1.2,0.,1.2,0.,1.2,,0.0,,0.0
1979-03-09 00:03:49.650 ,5,0,0.,1.2,0.,1.2,0.,1.2,,0.0,,0.0
1979-03-09 00:03:50.850 ,5,0,0.,1.2,0.,1.2,0.,1.2,,0.0,,0.0
1979-03-09 00:03:52.050 ,5,0,0.,1.2,0.,1.2,0.,1.2,,0.0,,0.0
1979-03-09 00:03:53.250 ,5,0,0.,1.2,0.,1.2,0.,1.2,,0.0,,0.0
1979-03-09 00:03:54.450 ,5,0,0.,1.2,0.,1.2,0.,1.2,,0.0,,0.0
1979-03-09 00:03:55.650 ,5,0,0.,1.2,0.,1.2,0.,1.2,,0.0,,0.0
1979-03-09 00:03:56.850 ,4,0,0.,1.2,0.,1.2,0.,1.2,,0.0,,0.0
1979-03-09 00:03:58.050 ,4,0,0.,1.2,0.,1.2,0.,1.2,,0.0,,0.0
1979-03-09 00:03:59.250 ,4,0,0.,1.2,0.,1.2,0.,1.2,,0.0,,0.0
1979-03-09 00:04:00.450 ,4,0,0.,1.2,0.,1.2,0.,1.2,,0.0,,0.0
1979-03-09 00:04:01.650 ,4,0,0.,1.2,0.,1.2,0.,1.2,,0.0,,0.0
1979-03-09 00:04:02.850 ,4,0,0.,1.2,0.,1.2,0.,1.2,,0.0,,0.0
1979-03-09 00:04:04.050 ,4,0,0.,1.2,0.,1.2,0.,1.2,,0.0,,0.0
1979-03-09 00:04:05.250 ,4,0,0.,1.2,0.,1.2,0.,1.2,,0.0,,0.0
1979-03-09 00:04:06.450 ,4,0,0.,1.2,0.,1.2,0.,1.2,,0.0,,0.0
1979-03-09 00:04:07.650 ,4,0,0.,1.2,0.,1.2,0.,1.2,,0.0,,0.0
1979-03-09 00:04:08.850 ,4,0,0.,1.2,0.,1.2,0.,1.2,,0.0,,0.0
1979-03-09 00:04:10.050 ,4,0,0.,1.2,0.,1.2,0.,1.2,,0.0,,0.0
1979-03-09 00:04:11.250 ,4,0,0.,1.2,0.,1.2,0.,1.2,,0.0,,0.0
1979-03-09 00:04:12.450 ,4,0,0.,1.2,0.,1.2,0.,1.2,,0.0,,0.0
1979-03-09 00:04:13.650 ,4,0,0.,1.2,0.,1.2,0.,1.2,,0.0,,0.0
1979-03-09 00:04:14.850 ,4,0,0.,1.2,0.,1.2,0.,1.2,,0.0,,0.0
1979-03-09 00:04:16.050 ,4,0,0.,1.2,0.,1.2,0.,1.2,,0.0,,0.0
1979-03-09 00:04:17.250 ,4,0,0.,1.2,0.,1.2,0.,1.2,,0.0,,0.0
1979-03-09 00:04:18.450 ,4,0,0.,1.2,0.,1.2,0.,1.2,,0.0,,0.0
1979-03-09 00:04:19.650 ,4,0,0.,1.2,0.,1.2,0.,1.2,,0.0,,0.0
1979-03-09 00:04:20.850 ,3,0,0.,1.2,0.,1.2,0.,1.2,,0.0,,0.0
1979-03-09 00:04:22.050 ,3,0,0.,1.2,0.,1.2,0.,1.2,,0.0,,0.0
1979-03-09 00:04:23.250 ,3,0,0.,1.2,0.,1.2,0.,1.2,,0.0,,0.0
1979-03-09 00:04:24.450 ,3,0,0.,1.2,0.,1.2,0.,1.2,,0.0,,0.0
1979-03-09 00:04:25.650 ,3,0,0.,1.2,0.,1.2,0.,1.2,,0.0,,0.0
1979-03-09 00:04:26.850 ,3,0,0.,1.2,0.,1.2,0.,1.2,,0.0,,0.0
1979-03-09 00:04:28.050 ,3,0,0.,1.2,0.,1.2,0.,1.2,,0.0,,0.0
1979-03-09 00:04:29.250 ,3,0,0.,1.2,0.,1.2,0.,1.2,,0.0,,0.0
1979-03-09 00:04:30.450 ,3,0,0.,1.2,0.,1.2,0.,1.2,,0.0,,0.0
1979-03-09 00:04:31.650 ,3,0,0.,1.2,0.,1.2,0.,1.2,,0.0,,0.0
1979-03-09 00:04:32.850 ,3,0,0.,1.2,0.,1.2,0.,1.2,,0.0,,0.0
1979-03-09 00:04:34.050 ,3,0,0.,1.2,0.,1.2,0.,1.2,,0.0,,0.0
1979-03-09 00:04:35.250 ,3,0,0.,1.2,0.,1.2,0.,1.2,,0.0,,0.0
1979-03-09 00:04:36.450 ,3,0,0.,1.2,0.,1.2,0.,1.2,,0.0,,0.0
1979-03-09 00:04:37.650 ,3,0,0.,1.2,0.,1.2,0.,1.2,,0.0,,0.0
1979-03-09 00:04:38.850 ,3,0,0.,1.2,0.,1.2,0.,1.2,,0.0,,0.0
1979-03-09 00:04:40.050 ,3,0,0.,1.2,0.,1.2,0.,1.2,,0.0,,0.0
1979-03-09 00:04:41.250 ,3,0,0.,1.2,0.,1.2,0.,1.2,,0.0,,0.0
1979-03-09 00:04:42.450 ,3,0,0.,1.2,0.,1.2,0.,1.2,,0.0,,0.0
1979-03-09 00:04:43.650 ,3,0,0.,1.2,0.,1.2,0.,1.2,,0.0,,0.0
1979-03-09 00:04:44.850 ,2,0,0.,1.2,0.,1.2,0.,1.2,,0.0,,0.0
1979-03-09 00:04:46.050 ,2,0,0.,1.2,0.,1.2,0.,1.2,,0.0,,0.0
1979-03-09 00:04:47.250 ,2,0,0.,1.2,0.,1.2,0.,1.2,,0.0,,0.0
1979-03-09 00:04:48.450 ,2,0,0.,1.2,0.,1.2,0.,1.2,,0.0,,0.0
1979-03-09 00:04:49.650 ,2,0,0.,1.2,0.,1.2,0.,1.2,,0.0,,0.0
1979-03-09 00:04:50.850 ,2,0,0.,1.2,0.,1.2,0.,1.2,,0.0,,0.0
1979-03-09 00:04:52.050 ,2,0,0.,1.2,0.,1.2,0.,1.2,,0.0,,0.0
1979-03-09 00:04:53.250 ,2,0,0.,1.2,0.,1.2,0.,1.2,,0.0,,0.0
1979-03-09 00:04:54.450 ,2,0,0.,1.2,0.,1.2,0.,1.2,,0.0,,0.0
1979-03-09 00:04:55.650 ,2,0,0.,1.2,0.,1.2,0.,1.2,,0.0,,0.0
1979-03-09 00:04:56.850 ,2,0,0.,1.2,0.,1.2,0.,1.2,,0.0,,0.0
1979-03-09 00:04:58.050 ,2,0,0.,1.2,0.,1.2,0.,1.2,,0.0,,0.0
1979-03-09 00:04:59.250 ,2,0,0.,1.2,0.,1.2,0.,1.2,,0.0,,0.0
1979-03-09 00:05:00.450 ,2,0,0.,1.2,0.,1.2,0.,1.2,,0.0,,0.0
1979-03-09 00:05:01.650 ,2,0,0.,1.2,0.,1.2,0.,1.2,,0.0,,0.0
1979-03-09 00:05:02.850 ,2,0,0.,1.2,0.,1.2,0.,1.2,,0.0,,0.0
1979-03-09 00:05:04.050 ,2,0,0.,1.2,0.,1.2,0.,1.2,,0.0,,0.0
1979-03-09 00:05:05.250 ,2,0,0.,1.2,0.,1.2,0.,1.2,,0.0,,0.0
1979-03-09 00:05:06.450 ,2,0,0.,1.2,0.,1.2,0.,1.2,,0.0,,0.0
1979-03-09 00:05:07.650 ,2,0,0.,1.2,0.,1.2,0.,1.2,,0.0,,0.0
1979-03-09 00:05:08.850 ,1,0,0.,1.2,0.,1.2,0.,1.2,,0.0,,0.0
1979-03-09 00:05:10.050 ,1,0,0.,1.2,0.,1.2,0.,1.2,,0.0,,0.0
1979-03-09 00:05:11.250 ,1,0,0.,1.2,0.,1.2,0.,1.2,,0.0,,0.0
1979-03-09 00:05:12.450 ,1,0,0.,1.2,0.,1.2,0.,1.2,,0.0,,0.0
1979-03-09 00:05:13.650 ,1,0,0.,1.2,0.,1.2,0.,1.2,,0.0,,0.0
1979-03-09 00:05:14.850 ,1,0,0.,1.2,0.,1.2,0.,1.2,,0.0,,0.0
1979-03-09 00:05:16.050 ,1,0,0.,1.2,0.,1.2,0.,1.2,,0.0,,0.0
1979-03-09 00:05:17.250 ,1,0,0.,1.2,0.,1.2,0.,1.2,,0.0,,0.0
1979-03-09 00:05:18.450 ,1,0,0.,1.2,0.,1.2,0.,1.2,,0.0,,0.0
1979-03-09 00:05:19.650 ,1,0,0.,1.2,0.,1.2,0.,1.2,,0.0,,0.0
1979-03-09 00:05:20.850 ,1,0,0.,1.2,0.,1.2,0.,1.2,,0.0,,0.0
1979-03-09 00:05:22.050 ,1,0,0.,1.2,0.,1.2,0.,1.2,,0.0,,0.0
1979-03-09 00:05:23.250 ,1,0,0.,1.2,0.,1.2,0.,1.2,,0.0,,0.0
1979-03-09 00:05:24.450 ,1,0,0.,1.2,0.,1.2,0.,1.2,,0.0,,0.0
1979-03-09 00:05:25.650 ,1,0,0.,1.2,0.,1.2,0.,1.2,,0.0,,0.0
1979-03-09 00:05:26.850 ,1,0,0.,1.2,0.,1.2,0.,1.2,,0.0,,0.0
1979-03-09 00:05:28.050 ,1,0,0.,1.2,0.,1.2,0.,1.2,,0.0,,0.0
1979-03-09 00:05:29.250 ,1,0,0.,1.2,0.,1.2,0.,1.2,,0.0,,0.0
1979-03-09 00:05:30.450 ,1,0,0.,1.2,0.,1.2,0.,1.2,,0.0,,0.0
1979-03-09 00:05:31.650 ,1,0,0.,1.2,0.,1.2,0.,1.2,,0.0,,0.0
1979-03-09 00:05:32.850 ,0,0,0.,1.2,0.,1.2,0.,1.2,,0.0,,0.0
1979-03-09 00:05:34.050 ,0,0,0.,1.2,0.,1.2,0.,1.2,,0.0,,0.0
1979-03-09 00:05:35.250 ,0,0,0.,1.2,0.,1.2,0.,1.2,,0.0,,0.0
1979-03-09 00:05:36.450 ,0,0,0.,1.2,0.,1.2,0.,1.2,,0.0,,0.0
1979-03-09 00:05:37.650 ,0,0,0.,1.2,0.,1.2,0.,1.2,,0.0,,0.0
1979-03-09 00:05:38.850 ,0,0,0.,1.2,0.,1.2,0.,1.2,,0.0,,0.0
1979-03-09 00:05:40.050 ,0,0,0.,1.2,0.,1.2,0.,1.2,,0.0,,0.0
1979-03-09 00:05:41.250 ,0,0,0.,1.2,0.,1.2,0.,1.2,,0.0,,0.0
1979-03-09 00:05:42.450 ,0,0,0.,1.2,0.,1.2,0.,1.2,,0.0,,0.0
1979-03-09 00:05:43.650 ,0,0,0.,1.2,0.,1.2,0.,1.2,,0.0,,0.0
1979-03-09 00:05:44.850 ,0,0,0.,1.2,0.,1.2,0.,1.2,,0.0,,0.0
1979-03-09 00:05:46.050 ,0,0,0.,1.2,0.,1.2,0.,1.2,,0.0,,0.0
1979-03-09 00:05:47.250 ,0,0,0.,1.2,0.,1.2,0.,1.2,,0.0,,0.0
1979-03-09 00:05:48.450 ,0,0,0.,1.2,0.,1.2,0.,1.2,,0.0,,0.0
1979-03-09 00:05:49.650 ,0,0,0.,1.2,0.,1.2,0.,1.2,,0.0,,0.0
1979-03-09 00:05:50.850 ,0,0,0.,1.2,0.,1.2,0.,1.2,,0.0,,0.0
1979-03-09 00:05:52.050 ,0,0,0.,1.2,0.,1.2,0.,1.2,,0.0,,0.0
1979-03-09 00:05:53.250 ,0,0,0.,1.2,0.,1.2,0.,1.2,,0.0,,0.0
1979-03-09 00:05:54.450 ,0,0,0.,1.2,0.,1.2,0.,1.2,,0.0,,0.0
1979-03-09 00:05:55.650 ,0,0,0.,1.2,0.,1.2,0.,1.2,,0.0,,0.0
1979-03-09 00:05:56.850 ,0,0,0.,1.2,0.,1.2,0.,1.2,,0.0,,0.0
1979-03-09 00:05:58.050 ,0,0,0.,1.2,0.,1.2,0.,1.2,,0.0,,0.0
1979-03-09 00:05:59.250 ,0,0,0.,1.2,0.,1.2,0.,1.2,,0.0,,0.0
1979-03-09 00:06:00.450 ,0,0,0.,1.2,0.,1.2,0.,1.2,,0.0,,0.0
1979-03-09 00:06:01.650 ,0,0,0.,1.2,0.,1.2,0.,1.2,,0.0,,0.0
1979-03-09 00:06:02.850 ,0,0,0.,1.2,0.,1.2,0.,1.2,,0.0,,0.0
1979-03-09 00:06:04.050 ,0,0,0.,1.2,0.,1.2,0.,1.2,,0.0,,0.0
1979-03-09 00:06:05.250 ,0,0,0.,1.2,0.,1.2,0.,1.2,,0.0,,0.0
1979-03-09 00:06:06.450 ,0,0,0.,1.2,0.,1.2,0.,1.2,,0.0,,0.0
1979-03-09 00:06:07.650 ,0,0,0.,1.2,0.,1.2,0.,1.2,,0.0,,0.0
1979-03-09 00:06:08.850 ,0,0,0.,1.2,0.,1.2,0.,1.2,,0.0,,0.0
1979-03-09 00:06:10.050 ,0,0,0.,1.2,0.,1.2,0.,1.2,,0.0,,0.0
1979-03-09 00:06:11.250 ,0,0,0.,1.2,0.,1.2,0.,1.2,,0.0,,0.0
1979-03-09 00:06:12.450 ,0,0,0.,1.2,0.,1.2,0.,1.2,,0.0,,0.0
1979-03-09 00:06:13.650 ,0,0,0.,1.2,0.,1.2,0.,1.2,,0.0,,0.0
1979-03-09 00:06:14.850 ,0,0,0.,1.2,0.,1.2,0.,1.2,,0.0,,0.0
1979-03-09 00:06:16.050 ,0,0,0.,1.2,0.,1.2,0.,1.2,,0.0,,0.0
1979-03-09 00:06:17.250 ,0,0,0.,1.2,0.,1.2,0.,1.2,,0.0,,0.0
1979-03-09 00:06:18.450 ,0,0,0.,1.2,0.,1.2,0.,1.2,,0.0,,0.0
1979-03-09 00:06:19.650 ,0,0,0.,1.2,0.,1.2,0.,1.2,,0.0,,0.0
1979-03-09 00:06:20.850 ,1,0,0.,1.2,0.,1.2,0.,1.2,,0.0,,0.0
1979-03-09 00:06:22.050 ,1,0,0.,1.2,0.,1.2,0.,1.2,,0.0,,0.0
1979-03-09 00:06:23.250 ,1,0,0.,1.2,0.,1.2,0.,1.2,,0.0,,0.0
1979-03-09 00:06:24.450 ,1,0,0.,1.2,0.,1.2,0.,1.2,,0.0,,0.0
1979-03-09 00:06:25.650 ,1,0,0.,1.2,0.,1.2,0.,1.2,,0.0,,0.0
1979-03-09 00:06:26.850 ,1,0,0.,1.2,0.,1.2,0.,1.2,,0.0,,0.0
1979-03-09 00:06:28.050 ,1,0,0.,1.2,0.,1.2,0.,1.2,,0.0,,0.0
1979-03-09 00:06:29.250 ,1,0,0.,1.2,0.,1.2,0.,1.2,,0.0,,0.0
1979-03-09 00:06:30.450 ,1,0,0.,1.2,0.,1.2,0.,1.2,,0.0,,0.0
1979-03-09 00:06:31.650 ,1,0,0.,1.2,0.,1.2,0.,1.2,,0.0,,0.0
1979-03-09 00:06:32.850 ,1,0,0.,1.2,0.,1.2,0.,1.2,,0.0,,0.0
1979-03-09 00:06:34.050 ,1,0,0.,1.2,0.,1.2,0.,1.2,,0.0,,0.0
1979-03-09 00:06:35.250 ,1,0,0.,1.2,0.,1.2,0.,1.2,,0.0,,0.0
1979-03-09 00:06:36.450 ,1,0,0.,1.2,0.,1.2,0.,1.2,,0.0,,0.0
1979-03-09 00:06:37.650 ,1,0,0.,1.2,0.,1.2,0.,1.2,,0.0,,0.0
1979-03-09 00:06:38.850 ,1,0,0.,1.2,0.,1.2,0.,1.2,,0.0,,0.0
1979-03-09 00:06:40.050 ,1,0,0.,1.2,0.,1.2,0.,1.2,,0.0,,0.0
1979-03-09 00:06:41.250 ,1,0,0.,1.2,0.,1.2,0.,1.2,,0.0,,0.0
1979-03-09 00:06:42.450 ,1,0,0.,1.2,0.,1.2,0.,1.2,,0.0,,0.0
1979-03-09 00:06:43.650 ,1,0,0.,1.2,0.,1.2,0.,1.2,,0.0,,0.0
1979-03-09 00:06:44.850 ,2,0,0.,1.2,0.,1.2,0.,1.2,,0.0,,0.0
1979-03-09 00:06:46.050 ,2,0,0.,1.2,0.,1.2,0.,1.2,,0.0,,0.0
1979-03-09 00:06:47.250 ,2,0,0.,1.2,0.,1.2,0.,1.2,,0.0,,0.0
1979-03-09 00:06:48.450 ,2,0,0.,1.2,0.,1.2,0.,1.2,,0.0,,0.0
1979-03-09 00:06:49.650 ,2,0,0.,1.2,0.,1.2,0.,1.2,,0.0,,0.0
1979-03-09 00:06:50.850 ,2,0,0.,1.2,0.,1.2,0.,1.2,,0.0,,0.0
1979-03-09 00:06:52.050 ,2,0,0.,1.2,0.,1.2,0.,1.2,,0.0,,0.0
1979-03-09 00:06:53.250 ,2,0,0.,1.2,0.,1.2,0.,1.2,,0.0,,0.0
1979-03-09 00:06:54.450 ,2,0,0.,1.2,0.,1.2,0.,1.2,,0.0,,0.0
1979-03-09 00:06:55.650 ,2,0,0.,1.2,0.,1.2,0.,1.2,,0.0,,0.0
1979-03-09 00:06:56.850 ,2,0,0.,1.2,0.,1.2,0.,1.2,,0.0,,0.0
1979-03-09 00:06:58.050 ,2,0,0.,1.2,0.,1.2,0.,1.2,,0.0,,0.0
1979-03-09 00:06:59.250 ,2,0,0.,1.2,0.,1.2,0.,1.2,,0.0,,0.0
1979-03-09 00:07:00.450 ,2,0,0.,1.2,0.,1.2,0.,1.2,,0.0,,0.0
1979-03-09 00:07:01.650 ,2,0,0.,1.2,0.,1.2,0.,1.2,,0.0,,0.0
1979-03-09 00:07:02.850 ,2,0,0.,1.2,0.,1.2,0.,1.2,,0.0,,0.0
1979-03-09 00:07:04.050 ,2,0,0.,1.2,0.,1.2,0.,1.2,,0.0,,0.0
1979-03-09 00:07:05.250 ,2,0,0.,1.2,0.,1.2,0.,1.2,,0.0,,0.0
1979-03-09 00:07:06.450 ,2,0,0.,1.2,0.,1.2,0.,1.2,,0.0,,0.0
1979-03-09 00:07:07.650 ,2,0,0.,1.2,0.,1.2,0.,1.2,,0.0,,0.0
1979-03-09 00:07:08.850 ,3,0,0.,1.2,0.,1.2,0.,1.2,,0.0,,0.0
1979-03-09 00:07:10.050 ,3,0,0.,1.2,0.,1.2,0.,1.2,,0.0,,0.0
1979-03-09 00:07:11.250 ,3,0,0.,1.2,0.,1.2,0.,1.2,,0.0,,0.0
1979-03-09 00:07:12.450 ,3,0,0.,1.2,0.,1.2,0.,1.2,,0.0,,0.0
1979-03-09 00:07:13.650 ,3,0,0.,1.2,0.,1.2,0.,1.2,,0.0,,0.0
1979-03-09 00:07:14.850 ,3,0,0.,1.2,0.,1.2,0.,1.2,,0.0,,0.0
1979-03-09 00:07:16.050 ,3,0,0.,1.2,0.,1.2,0.,1.2,,0.0,,0.0
1979-03-09 00:07:17.250 ,3,0,0.,1.2,0.,1.2,0.,1.2,,0.0,,0.0
1979-03-09 00:07:18.450 ,3,0,0.,1.2,0.,1.2,0.,1.2,,0.0,,0.0
1979-03-09 00:07:19.650 ,3,0,0.,1.2,0.,1.2,0.,1.2,,0.0,,0.0
1979-03-09 00:07:20.850 ,3,0,0.,1.2,0.,1.2,0.,1.2,,0.0,,0.0
1979-03-09 00:07:22.050 ,3,0,0.,1.2,0.,1.2,0.,1.2,,0.0,,0.0
1979-03-09 00:07:23.250 ,3,0,0.,1.2,0.,1.2,0.,1.2,,0.0,,0.0
1979-03-09 00:07:24.450 ,3,0,0.,1.2,0.,1.2,0.,1.2,,0.0,,0.0
1979-03-09 00:07:25.650 ,3,0,0.,1.2,0.,1.2,0.,1.2,,0.0,,0.0
1979-03-09 00:07:26.850 ,3,0,0.,1.2,0.,1.2,0.,1.2,,0.0,,0.0
1979-03-09 00:07:28.050 ,3,0,0.,1.2,0.,1.2,0.,1.2,,0.0,,0.0
1979-03-09 00:07:29.250 ,3,0,0.,1.2,0.,1.2,0.,1.2,,0.0,,0.0
1979-03-09 00:07:30.450 ,3,0,0.,1.2,0.,1.2,0.,1.2,,0.0,,0.0
1979-03-09 00:07:31.650 ,3,0,0.,1.2,0.,1.2,0.,1.2,,0.0,,0.0
1979-03-09 00:07:32.850 ,4,0,0.,1.2,0.,1.2,0.,1.2,,0.0,,0.0
1979-03-09 00:07:34.050 ,4,0,0.,1.2,0.,1.2,0.,1.2,,0.0,,0.0
1979-03-09 00:07:35.250 ,4,0,0.,1.2,0.,1.2,0.,1.2,,0.0,,0.0
1979-03-09 00:07:36.450 ,4,0,0.,1.2,0.,1.2,0.,1.2,,0.0,,0.0
1979-03-09 00:07:37.650 ,4,0,0.,1.2,0.,1.2,0.,1.2,,0.0,,0.0
1979-03-09 00:07:38.850 ,4,0,0.,1.2,0.,1.2,0.,1.2,,0.0,,0.0
1979-03-09 00:07:40.050 ,4,0,0.,1.2,0.,1.2,0.,1.2,,0.0,,0.0
1979-03-09 00:07:41.250 ,4,0,0.,1.2,0.,1.2,0.,1.2,,0.0,,0.0
1979-03-09 00:07:42.450 ,4,0,0.,1.2,0.,1.2,0.,1.2,,0.0,,0.0
1979-03-09 00:07:43.650 ,4,0,0.,1.2,0.,1.2,0.,1.2,,0.0,,0.0
1979-03-09 00:07:44.850 ,4,0,0.,1.2,0.,1.2,0.,1.2,,0.0,,0.0
1979-03-09 00:07:46.050 ,4,0,0.,1.2,0.,1.2,0.,1.2,,0.0,,0.0
1979-03-09 00:07:47.250 ,4,0,0.,1.2,0.,1.2,0.,1.2,,0.0,,0.0
1979-03-09 00:07:48.450 ,4,0,0.,1.2,0.,1.2,0.,1.2,,0.0,,0.0
1979-03-09 00:07:49.650 ,4,0,0.,1.2,0.,1.2,0.,1.2,,0.0,,0.0
1979-03-09 00:07:50.850 ,4,0,0.,1.2,0.,1.2,0.,1.2,,0.0,,0.0
1979-03-09 00:07:52.050 ,4,0,0.,1.2,0.,1.2,0.,1.2,,0.0,,0.0
1979-03-09 00:07:53.250 ,4,0,0.,1.2,0.,1.2,0.,1.2,,0.0,,0.0
1979-03-09 00:07:54.450 ,4,0,0.,1.2,0.,1.2,0.,1.2,,0.0,,0.0
1979-03-09 00:07:55.650 ,4,0,0.,1.2,0.,1.2,0.,1.2,,0.0,,0.0
1979-03-09 00:07:56.850 ,5,0,0.,1.2,0.,1.2,0.,1.2,,0.0,,0.0
1979-03-09 00:07:58.050 ,5,0,0.,1.2,0.,1.2,0.,1.2,,0.0,,0.0
1979-03-09 00:07:59.250 ,5,0,0.,1.2,0.,1.2,0.,1.2,,0.0,,0.0
1979-03-09 00:08:00.450 ,5,0,0.,1.2,0.,1.2,0.,1.2,,0.0,,0.0
1979-03-09 00:08:01.650 ,5,0,0.,1.2,0.,1.2,0.,1.2,,0.0,,0.0
1979-03-09 00:08:02.850 ,5,0,0.,1.2,0.,1.2,0.,1.2,,0.0,,0.0
1979-03-09 00:08:04.050 ,5,0,0.,1.2,0.,1.2,0.,1.2,,0.0,,0.0
1979-03-09 00:08:05.250 ,5,0,0.,1.2,0.,1.2,0.,1.2,,0.0,,0.0
1979-03-09 00:08:06.450 ,5,0,0.,1.2,0.,1.2,0.,1.2,,0.0,,0.0
1979-03-09 00:08:07.650 ,5,0,0.,1.2,0.,1.2,0.,1.2,,0.0,,0.0
1979-03-09 00:08:08.850 ,5,0,0.,1.2,0.,1.2,0.,1.2,,0.0,,0.0
1979-03-09 00:08:10.050 ,5,0,0.,1.2,0.,1.2,0.,1.2,,0.0,,0.0